Regional Weather Roundup
Issued by NWS Pendleton, OR

Home | Current Version | Previous Version | Text Only | Print | Product List | Glossary On
Versions: 1 2 3 4 5 6 7 8 9 10 11 12 13 14 15 16 17 18 19 20 21 22 23 24 25 26 27 28 29 30 31 32 33 34 35 36 37 38 39 40 41 42 43 44 45 46 47 48 49 50
000
ASUS46 KPDT 292004
RWRPDT
PENDLETON REGIONAL WEATHER ROUNDUP
NATIONAL WEATHER SERVICE PENDLETON OREGON
100 PM PDT SUN MAR 29 2015

NOTE: FAIR INDICATES FEW OR NO CLOUDS BELOW 12,000 FEET WITH NO
SIGNIFICANT WEATHER AND/OR OBSTRUCTIONS TO VISIBILITY.

# INDICATES UNOFFICIAL STATION AND DATA

WAZ520-292110-
EAST SLOPES OF WASHINGTON CASCADES

CITY            SKY/WX      TMP DP  RH  WIND    PRES   REMARKS
#BULLFROG       N/A         53  36  52  W5      N/A
#BUMPING DAM    N/A         48  N/A N/A S7      N/A
#CLE ELUM HS    N/A         55  36  49  SW3     30.16F
#CLE ELUM LAKE  N/A         53  37  54  CALM    30.21F
#CLIFFDEL 2NW   N/A         53  39  59  NW1     N/A
#EASTON DOT     N/A         53  17  24  N1      N/A
#ELK HTS DOT    N/A         52  52  100 W2      N/A
#GLENWOOD       N/A         60  39  46  SW7     30.23F
#MANASTASH CYN  N/A         53  36  52  N2      30.16F
#NELSON         N/A         54  39  57  CALM    30.24F
#NELSON 3SW     N/A         50  38  63  CALM    30.45F
#NILE           N/A         55  38  53  CALM    29.46F
#PEOH POINT     N/A         45  33  63  W2      N/A
#RONALD 2NW     N/A         53  38  57  NW2     30.06F
#SNOWDEN        N/A         58  21  24  NW2     N/A
#SOUTH BLEWITT  N/A         54  36  50  CALM    N/A
#TEANAWAY 4NE   N/A         56  43  62  SW3     N/A
#TROUT LAKE 1NE N/A         59  37  44  NW5     30.23F
$$

WAZ521-292110-
SIMCOE HIGHLANDS

CITY            SKY/WX      TMP DP  RH  WIND    PRES   REMARKS
#SATUS PASS DOT N/A         55  25  31  CALM    N/A
#CENTERVILLE 4W N/A         60  41  49  NW12    29.96F
#CENTERVILLE 1SWN/A         58  38  47  W7      30.19F
#GOLDENDALE     N/A         58  38  47  W7      N/A
#GOLDENDALE 1NE N/A         58  28  32  SW2     N/A
#GOLDENDALE 5WNWN/A         59  36  42  W12     30.21F
#GOODNOE HILLS  N/A         63  40  43  NW8     N/A
#LYLE 6NE       N/A         55  44  66  SW5     30.21F
$$

WAZ026-292110-
KITTITAS VALLEY

CITY            SKY/WX      TMP DP  RH  WIND    PRES   REMARKS
ELLENSBURG AP   CLOUDY      60  37  42  NW15    30.20F
#ELLENSBURG 3NE N/A         56  39  53  N5      30.19F
#ELLENSBURG 1E  N/A         57  36  45  CALM    N/A
#KITTITAS 4N    N/A         58  40  51  NW6     28.50F
#KITTITAS 3S    N/A         55  42  61  CALM    30.19F
#MANASTASH RDG  N/A         53  53  100 N7      N/A
#ROCKY CYN DOT  N/A         56  32  40  NW9     N/A
#RYEGRASS DOT   N/A         53  33  46  W12     N/A
#THORP 6N       N/A         52  37  56  W7      30.24F
$$

WAZ027-292110-
YAKIMA VALLEY

CITY            SKY/WX      TMP DP  RH  WIND    PRES   REMARKS
SUNNYSIDE AP    MOCLDY      62  39  43  NE3     30.20F
YAKIMA AIRPORT  MOCLDY      63  38  39  VRB5    30.20F
#DONALD 2NE     N/A         68  26  20  CALM    29.04F
#GRANDVIEW      N/A         63  40  43  S3      30.20F
#MABTON         N/A         61  45  56  W1      30.20F
#MOXEE 2E       N/A         59  17  19  N3      30.06F
#NACHES 2SW     N/A         57  44  62  NE5     30.23S
#PARKER DOT     N/A         60  36  41  N2      N/A
#SELAH 8E       N/A         57  33  40  W7      N/A
#TERRACE HTS    N/A         59  39  47  CALM    30.17F
#TOPPENISH      N/A         61  39  44  S2      30.11F
#I82 S UMTANUM RN/A         55  36  49  SW2     N/A
#UNION GAP DOT  N/A         60  35  39  E1      N/A
#WAPATO 4NE     N/A         68  26  20  CALM    29.04F
#WEST VALLEY    N/A         58  41  53  E1      30.19F
#W YAKIMA       N/A         59  41  51  SE1     30.20F
#WHITE SWAN 5E  N/A         60  43  53  NE6     30.20F
#WILEY CITY 3W  N/A         63  41  44  NE1     30.22F
#ZILLAH DOT     N/A         61  38  42  N1      N/A
$$

WAZ028-292110-
LOWER COLUMBIA BASIN...WASHINGTON

CITY            SKY/WX      TMP DP  RH  WIND    PRES   REMARKS
PASCO           PTCLDY      67  37  33  SW6     30.21F
PROSSER AWOS    N/A         64  41  43  SE7     30.22F
RICHLAND AWOS   PTCLDY      68  37  32  S12     30.20F
#BASIN CITY 5SW N/A         65  42  43  S5      30.20F
#BENTON CITY    N/A         63  39  41  SW9     30.11F
#CONNELL 5N     N/A         62  44  52  SW5     30.22F
#CONNELL 5NW    N/A         61  43  51  SW9     30.18F
#ELTOPIA        N/A         67  46  47  S8      30.17F
#ELTOPIA 6NW    N/A         62  41  46  S12     29.17F
#KAHLOTUS       N/A         60  40  47  NW14    30.21F
#KENNEWICK 3S   N/A         66  39  37  SW1     30.22F
#PASCO-BROADMOORN/A         69  38  32  SW7     30.10F
#PATERSON       N/A         61  44  53  SW7     30.20F
#PROSSER DOT    N/A         65  36  34  S2      N/A
#PROSSER        N/A         62  39  43  S8      30.20F
#SAGEMOOR 2W    N/A         63  45  52  E5      30.05F
#TOUCHET 2S     N/A         68  46  45  W5      30.19F
#WEST PASCO     N/A         68  44  42  W5      30.25F
$$

WAZ029-292110-
FOOTHILLS OF THE BLUES...WASHINGTON

CITY            SKY/WX      TMP DP  RH  WIND    PRES   REMARKS
WALLA WALLA AP  PTCLDY      66  39  37  W12     30.21F
#DAYTON SCHOOL  N/A         63  33  32  S6      30.22F
#DELANEY DOT    N/A         65  36  34  SW2     N/A
#LOWDEN 2SE     N/A         66  45  47  NW1     30.18F
#PLEASANT VIEW 1N/A         62  41  46  S12     30.26F
#PRESCOTT       N/A         64  44  48  W3      30.22F
#SUDBURY        N/A         66  N/A N/A CALM    N/A
#WHITMAN COLLEGEN/A         63  41  44  SW3     30.25F
#WAITSBURG 5S   N/A         60  45  58  S7      30.32S
#WAITSBURG 8N   N/A         63  18  17  S13     30.06S
#WALLA WALLA 5E N/A         64  47  54  W7      N/A
#WALLA WALLA U  N/A         66  43  43  CALM    30.21F
#WHITMAN MISSIONN/A         65  45  48  CALM    30.23S
$$

WAZ030-292110-
BLUE MOUNTAINS...WASHINGTON

CITY            SKY/WX      TMP DP  RH  WIND    PRES   REMARKS
#DIXIE 5SE      N/A         59  36  42  W6      30.16S
$$

ORZ009-041-WAZ024-292110-
COLUMBIA RIVER GORGE

CITY            SKY/WX      TMP DP  RH  WIND    PRES   REMARKS
HOOD RIVER AP   PTCLDY      63  37  38  NW8     30.24F
THE DALLES AP   PTCLDY      64  42  45  CALM    30.22F
#ARLINGTON AIRPON/A         63  39  41  W13     29.98S
#CELILO DOT     N/A         59  40  49  SW1     N/A
#LYLE           N/A         62  44  52  N6      30.24F
#MARYHILL       N/A         60  44  55  W5      N/A
#MOSIER 1S      N/A         62  34  35  NW6     30.21F
#MURDOCK        N/A         61  47  60  W5      30.24F
#RUFUS DOT      N/A         60  39  46  CALM    N/A

$$

ORZ510-292110-
NORTH CENTRAL OREGON

CITY            SKY/WX      TMP DP  RH  WIND    PRES   REMARKS
#CHENOWITH 1W   N/A         55  40  57  NW13    N/A
#COW CYN RST AREN/A         57  25  29  SW6     N/A
#DUFUR 9E       N/A         53  40  61  N5      30.29F
#GRASS VALLEY 1SN/A         61  35  38  W7      30.24F
#KENT DOT       N/A         61  28  28  SW6     N/A
#MAUPIN SCHOOL  N/A         63  38  39  CALM    30.22F
#MORO SCHOOL    N/A         59  47  64  CALM    30.23F
#SHANIKO 5WSW   N/A         58  22  25  SW13    N/A
#SHANIKO 4NW    N/A         56  26  31  W8      30.24F
#TYGH VALLEY 2NEN/A         63  44  50  E2      30.21F
#WAPANITIA AIRPON/A         64  35  34  W1      30.23F
#WASCO DOT      N/A         62  33  34  W6      N/A
#WASCO 5NE      N/A         60  36  41  CALM    30.23F
$$

ORZ511-292110-
CENTRAL OREGON

CITY            SKY/WX      TMP DP  RH  WIND    PRES   REMARKS
BEND AIRPORT    N/A         N/A N/A N/A MISG    N/A
MADRAS AIRPORT  PTCLDY      61  34  36  SE3     30.24F
PRINEVILLE AP   SUNNY       63  27  25  CALM    30.22F
REDMOND AIRPORT SUNNY       63  25  23  SW3     30.21F
#BEND 6E        N/A         62  26  25  CALM    30.15F
#BEND 1SW       N/A         65  32  29  E1      N/A
#BEND-AWBREY    N/A         62  34  35  SW1     30.22F
#BEND-KIM LN    N/A         65  33  30  SW1     30.21F
#CULVER         N/A         62  29  28  NE2     30.18F
#LAKE BILLY CHINN/A         62   0   8  N6      30.24F
#POWELL BUTTE   N/A         69  38  32  E3      29.83F
#PRINEVILLE 3N  N/A         63  36  36  S2      30.19F
#WARM SPRINGS   N/A         64  37  37  N1      30.19F

$$


ORZ509-292110-
EAST SLOPES OF OREGON CASCADES

CITY            SKY/WX      TMP DP  RH  WIND    PRES   REMARKS
#BLUE BOX PASS  N/A         56   2  11  NW2     N/A
#CAMP SHERMAN   N/A         65  31  28  CALM    30.23F
#LA PINE DOT    N/A         64  17  16  W3      N/A
#LA PINE 4NW    N/A         59  32  36  CALM    30.33F
#LAVA BUTTE DOT N/A         61  26  26  SE6     N/A
#MT BACHELOR-MIDN/A         43  27  53  SE3     N/A
#SISTERS AIRPOR N/A         61  39  44  N2      30.17S
#SISTERS ODOT   N/A         60  N/A N/A NE1     N/A
#SISTERS 3N     N/A         62  36  38  W2      30.25S
#SUNRIVER       N/A         61  31  32  E3      30.15F
#TUMALO 3W      N/A         61  29  30  NE2     30.11F
#WANOGA BUTTE D N/A         51  28  41  SE2     N/A

$$

ORZ044-292110-
LOWER COLUMBIA BASIN...OREGON

CITY            SKY/WX      TMP DP  RH  WIND    PRES   REMARKS
HERMISTON       PTCLDY      67  38  34  NW8     30.21F
#BOARDMAN SCHOOLN/A         66  38  36  W2      30.21F
#BOARDMAN 8SW   N/A         64  40  41  SW10    30.20F
#ECHO 8SW       N/A         66  40  38  N3      30.19F
#IONE SCHOOL    N/A         63  40  43  NW6     30.20F
#IRRIGON 4NW    N/A         65  44  46  SW6     N/A
#UMATILLA       N/A         64  42  45  N5      30.13F
$$

ORZ507-292110-
NORTHERN FOOTHILLS OF THE BLUES

CITY            SKY/WX      TMP DP  RH  WIND    PRES   REMARKS
PENDLETON AIRPT PTCLDY      64  41  43  NW10    30.20F
#ADAMS 3WNW     N/A         62  43  50  W5      30.21F
#ATHENA         N/A         62  39  43  SW2     30.24F
#CAYUSE         N/A         63  42  46  CALM    30.20F
#HELIX SCHOOL   N/A         62  37  39  W3      30.22F
#HELIX 3N       N/A         61  36  39  S7      30.18F
#HELIX 6SW      N/A         61  39  44  W7      30.20F
#HOLDMAN 5SE    N/A         62  40  44  NW1     30.21F
#HOLDMAN 6E     N/A         61  38  42  E6      30.03F
#M-F FERNDALE   N/A         70  40  34  CALM    30.20F
#M-F GROVE ELEM N/A         66  32  28  SW7     30.19S
#M-FREEWATER 5SEN/A         67  41  39  NW5     30.19F
#PENDLETON DNTN N/A         68  39  35  NW3     30.19F
#PDT AQUATIC CTRN/A         66  45  47  W1      30.22S
#PENDLETON 5NE  N/A         64  44  48  CALM    30.16F
#PDT SUNRIDGE   N/A         65  42  43  W1      30.21F
#PENDLETON 7NW  N/A         67  46  47  W1      28.06S
#TUTUILLA       N/A         65  40  40  E1      30.22F
#UMAPINE 2E     N/A         67  46  47  N5      30.18F
#WESTON SCHOOL  N/A         62  33  34  CALM    30.19F

$$

ORZ508-292110-
SOUTHERN FOOTHILLS OF THE BLUES

CITY            SKY/WX      TMP DP  RH  WIND    PRES   REMARKS
LEXINGTON       SUNNY       66  37  34  N10     30.23F
#AJAX           N/A         61  34  36  S3      30.14F
#CONDON SCHOOL  N/A         60  30  32  CALM    30.18S
#CONDON 5W      N/A         57  29  34  W12     30.21F
#FOSSIL SCHOOL  N/A         62  30  30  SW3     30.18S
#HEPPNER EOC    N/A         63  36  36  NW3     30.16F
#HEPPNER 4NE    N/A         60  34  37  NW3     30.22F
#LEXINGTON 2SE  N/A         66  39  37  N5      30.16F
#MIKKALO        N/A         61  39  44  NW8     30.21F
#OLEX 4N        N/A         60  43  53  W7      30.22F
#RUGGS 5NE      N/A         64  33  31  W8      30.36F
#RUGGS 2SW      N/A         63  33  32  W8      30.23F

$$

ORZ502-503-292110-
BLUE MOUNTAINS

CITY            SKY/WX      TMP DP  RH  WIND    PRES   REMARKS
MEACHAM         SUNNY       60  27  28  VRB5    30.23F
#BATTLE MTN DOT N/A         56  35  45  SE7     N/A
#HEPPNER 15SE   N/A         58  29  33  S1      30.14F
#LADD CYN SMT   N/A         55  26  32  SE15    N/A
#LADD CREEK ODOTN/A         60  33  36  S7      N/A
#LONG CREEK HS  N/A         58  31  36  CALM    30.20F
#N POWDER DOT   N/A         59  35  40  N1      N/A
#PIKES PEAK     N/A         54  35  48  SW13    27.99S
#TOLLGATE       N/A         50  31  48  SW3     30.18F
#TROY SCHOOL    N/A         65  39  38  NE2     30.07F
#UKIAH          N/A         59  33  37  SW7     30.31F
#WESTON 4E      N/A         58  30  34  S7      30.19F
$$

ORZ505-292110-
JOHN DAY BASIN

CITY            SKY/WX      TMP DP  RH  WIND    PRES   REMARKS
JOHN DAY        SUNNY       62  31  31  N3      30.24F
#JOHN DAY KJDY  N/A         61  42  50  CALM    30.34R
#DAYVILLE SCHOOLN/A         59  31  34  E2      30.19F
#MITCHELL       N/A         62  41  46  W2      30.32F
#MONUMENT HS    N/A         62  33  34  CALM    30.22F
#MT. VERNON 5SE N/A         57  37  47  CALM    30.21F
#WINLOCK        N/A         63  31  30  CALM    30.30F
$$

ORZ506-292110-
OCHOCO AND JOHN DAY HIGHLANDS

CITY            SKY/WX      TMP DP  RH  WIND    PRES   REMARKS
#BUCK CREEK DOT N/A         62  62  100 SE7     N/A
#HORSE RIDGE DO N/A         62  20  20  SE2     N/A
#KEYES SMT DOT  N/A         60  32  35  CALM    N/A
#PAULINA SCHOOL N/A         69  35  28  CALM    30.20F
#PINE MTN OBS   N/A         50  23  34  S2      N/A
#PRAIRIE CITY   N/A         59  28  30  E1      30.19F
#SENECA         N/A         57  N/A N/A N5      N/A
#SENECA 9NW     N/A         57  30  35  S1      30.29F
$$

ORZ049-292110-
GRANDE RONDE VALLEY

CITY            SKY/WX      TMP DP  RH  WIND    PRES   REMARKS
LA GRANDE       SUNNY       61  34  36  SE6     30.23F
#COVE           N/A         58  44  60  N2      30.23F
#COVE SCHOOL    N/A         61  41  48  CALM    30.20F
#ELGIN 3N       N/A         59  35  40  S12     30.19F
#ELGIN 1E       N/A         58  40  51  CALM    N/A
#IMBLER SCHOOL  N/A         58  39  49  S9      30.18F
#ISLAND CITY 4N N/A         59  49  69  S1      30.27F
#LADD CYN DOT   N/A         59  31  34  SE12    N/A
#UNION 1S       N/A         61  36  39  SE7     30.17F
$$

ORZ050-292110-
WALLOWA COUNTY

CITY            SKY/WX      TMP DP  RH  WIND    PRES   REMARKS
#ENTERPRISE HS  N/A         57  32  38  W5      30.22S
#IMNAHA 10S     N/A         63  33  32  NE2     30.19F
#JOSEPH 3N      N/A         56  37  49  N5      30.24F
#JOSEPH 3W      N/A         55  21  26  N2      30.07F
#LOSTINE        N/A         56  35  45  CALM    30.09F
#MT HOWARD 8000 N/A         42  24  48  W5      30.29S
#PROMISE 1S     N/A         55  33  43  E9      30.36F
#SHEEP RDG 7000 N/A         42  25  51  CALM    30.34F
#WALLOWA SCHOOL N/A         55  35  47  CALM    31.25F



$$



USA.gov is the U.S. government's official web portal to all federal, state and local government web resources and services.